Weather History for HKGA - October, 2012

Change the Weather History Date:

Monday, October 1, 2012

  Actual Average Record
Temperature  
Mean Temperature 84 °F -  
Max Temperature 95 °F 97 °F - ()
Min Temperature 74 °F 74 °F - ()
Cooling Degree Days 20    
Growing Degree Days 34 (Base 50)    
Moisture  
Dew Point 69 °F    
Average Humidity 65    
Maximum Humidity 89    
Minimum Humidity 39    
Precipitation  
Precipitation 0.00 in - - ()
Sea Level Pressure  
Sea Level Pressure 29.92 in    
Wind  
Wind Speed 9 mph ()    
Max Wind Speed 23 mph    
Max Gust Speed -    
Visibility 8.3 miles    
Events      
T = Trace of Precipitation, MM = Missing Value Source: Averaged Metar Reports

Daily Weather History Graph

Daily Weather History Graph

Search for Another Location

Airport or City:

Trip Planner

Search our weather history database for the weather conditions in past years. The results will help you decide how hot, cold, wet, or windy it might be!

Date:

Astronomy

Oct. 01, 2012 Rise Set
Actual Time 6:07 AM EAT 6:14 PM EAT
Civil Twilight 5:46 AM EAT 6:35 PM EAT
Nautical Twilight 5:22 AM EAT 6:59 PM EAT
Astronomical Twilight 4:58 AM EAT 7:23 PM EAT
Moon 7:12 PM EAT (10/1) 6:48 AM EAT (10/1)
Length of Visible Light 12h 48m
Length of Day
12h 06m
Full, 99% of the Moon is Illuminated
Oct 1
Full
Oct 8
Last Quarter
Oct 15
New
Oct 22
First Quarter
Oct 29
Full

Hourly Weather History & Observations

Time (EAT) Temp. Heat Index Dew Point Humidity Pressure Visibility Wind Dir Wind Speed Gust Speed Precip Events Conditions
1:00 AM 77.0 °F - 66.2 °F 69% 29.89 in - SSE 6.9 mph - N/A   Clear
2:00 AM 75.2 °F - 68.0 °F 78% 29.89 in - SSE 9.2 mph - N/A   Clear
3:00 AM 77 °F - 70 °F 72% 29.89 in 19 mi South 11.5 mph - -   Partly Cloudy
4:00 AM 77.0 °F - 69.8 °F 78% 29.89 in 6.2 mi South 5.8 mph - N/A   Mostly Cloudy
5:00 AM 77.0 °F - 69.8 °F 78% 29.92 in 6.2 mi South 5.8 mph - N/A   Mostly Cloudy
7:00 AM 77.0 °F - 69.8 °F 78% 29.95 in 6.2 mi SW 5.8 mph - N/A   Mostly Cloudy
8:00 AM 75.2 °F - 71.6 °F 89% 29.98 in 6.2 mi SSW 5.8 mph - N/A   Mostly Cloudy
9:00 AM 78 °F - 74 °F 83% 30.00 in 25 mi SSW 9.2 mph - -   Mostly Cloudy
10:00 AM 80.6 °F 84.6 °F 71.6 °F 74% 30.01 in 6.2 mi South 11.5 mph - N/A   Mostly Cloudy
11:00 AM 82.4 °F 87.2 °F 71.6 °F 70% 29.98 in 6.2 mi ESE 11.5 mph - N/A   Mostly Cloudy
1:00 PM 84.2 °F 89.6 °F 71.6 °F 66% 29.95 in 6.2 mi SW 9.2 mph - N/A   Mostly Cloudy
2:00 PM 89.6 °F 94.7 °F 69.8 °F 52% 29.92 in 6.2 mi SSE 11.5 mph - N/A   Mostly Cloudy
4:00 PM 95.0 °F 98.5 °F 66.2 °F 39% 29.83 in 6.2 mi SSE 13.8 mph - N/A   Scattered Clouds
5:00 PM 95.0 °F 98.5 °F 66.2 °F 39% 29.83 in 6.2 mi South 11.5 mph - N/A   Scattered Clouds
7:00 PM 89.6 °F 93.4 °F 68.0 °F 49% 29.86 in - SE 17.3 mph - N/A   Clear
8:00 PM 87.8 °F 91.4 °F 68.0 °F 52% 29.86 in - South 23.0 mph - N/A   Clear
9:00 PM 85 °F - 69 °F 49% 29.88 in 19 mi South 17.3 mph - -  
10:00 PM 82.4 °F 85.4 °F 68.0 °F 62% 29.92 in - SSE 20.7 mph - N/A   Clear
11:00 PM 80.6 °F 83.2 °F 68.0 °F 65% 29.95 in - South 16.1 mph - N/A   Clear